FW6726 Weather Reports


Display with metric or nautical units.
time (UTC)temp
F
wind
direction
speed
MPH
gust
MPH
rain 1hr
in
rain 24hr
in
rain mn
in
humidity
%
barometer
mb
20260509195349 66 128 3.0 6.0 0.00 0.00 0.00 81 1016.4
20260509194847 65 110 2.0 5.0 0.00 0.00 0.00 83 1016.5
20260509194349 65 134 2.0 5.0 0.00 0.00 0.00 84 1016.5
20260509193848 64 151 3.0 5.0 0.00 0.00 0.00 85 1016.5
20260509193613 63 125 2.0 4.0 0.00 0.00 0.00 85 1016.6
20260509192847 63 137 1.0 4.0 0.00 0.00 0.00 86 1016.6
20260509192349 63 111 1.0 3.0 0.00 0.00 0.00 87 1016.7
20260509191847 62 121 2.0 3.0 0.00 0.00 0.00 88 1016.8
20260509191348 62 121 1.0 3.0 0.00 0.00 0.00 89 1016.8
20260509190847 62 100 1.0 4.0 0.00 0.00 0.00 91 1016.8
20260509190348 62 94 2.0 4.0 0.00 0.00 0.00 92 1016.9
20260509185847 61 103 2.0 4.0 0.00 0.00 0.00 93 1016.9
20260509185348 61 111 2.0 4.0 0.00 0.00 0.00 94 1016.9
20260509184847 60 93 2.0 4.0 0.00 0.00 0.00 94 1016.9
20260509184347 60 109 1.0 3.0 0.00 0.00 0.00 95 1016.9
20260509183846 60 110 1.0 2.0 0.00 0.00 0.00 95 1016.9
20260509183348 60 110 1.0 2.0 0.00 0.00 0.00 96 1017.0
20260509182846 60 110 0.0 3.0 0.00 0.00 0.00 96 1017.0
20260509182347 59 109 1.0 3.0 0.00 0.00 0.00 96 1017.0
20260509181845 59 109 2.0 4.0 0.00 0.00 0.00 96 1016.9
20260509181347 59 102 2.0 5.0 0.00 0.00 0.00 96 1016.8
20260509181106 59 86 2.0 5.0 0.00 0.00 0.00 96 1016.8
20260509180346 59 93 1.0 5.0 0.00 0.00 0.00 97 1016.8
20260509180106 58 99 2.0 4.0 0.00 0.00 0.00 96 1016.8
20260509175347 58 103 2.0 5.0 0.00 0.00 0.00 96 1016.8
20260509174845 58 89 1.0 6.0 0.00 0.00 0.00 96 1016.8
20260509174346 57 97 3.0 6.0 0.00 0.00 0.00 96 1016.7
20260509174107 58 82 3.0 4.0 0.00 0.00 0.00 97 1016.7
20260509173346 57 97 2.0 5.0 0.00 0.00 0.00 96 1016.7
20260509172844 57 100 4.0 5.0 0.00 0.00 0.00 96 1016.7
20260509172347 57 96 1.0 7.0 0.00 0.00 0.00 96 1016.8
20260509172330 57 92 2.0 7.0 0.00 0.00 0.00 96 1016.8
20260509171606 57 89 5.0 7.0 0.00 0.00 0.00 96 1016.8
20260509170846 57 89 2.0 5.0 0.00 0.00 0.00 96 1016.7
20260509170346 57 85 3.0 5.0 0.00 0.00 0.00 97 1016.7
20260509165845 57 72 1.0 4.0 0.00 0.00 0.00 97 1016.6
20260509165614 56 71 3.0 5.0 0.00 0.00 0.00 96 1016.6
20260509165104 56 44 3.0 5.0 0.00 0.00 0.00 97 1016.4
20260509164346 56 82 0.0 2.0 0.00 0.00 0.00 96 1016.5
20260509163844 56 82 1.0 2.0 0.00 0.00 0.00 96 1016.5
20260509163608 56 83 1.0 3.0 0.00 0.00 0.00 96 1016.5
20260509162844 56 83 2.0 3.0 0.00 0.00 0.00 96 1016.5
20260509162346 56 86 0.0 0.0 0.00 0.00 0.00 97 1016.5
20260509161843 55 86 0.0 4.0 0.00 0.00 0.00 96 1016.5
20260509161344 55 86 1.0 4.0 0.00 0.00 0.00 96 1016.5
20260509160843 55 85 2.0 5.0 0.00 0.00 0.00 96 1016.5
20260509160600 55 85 2.0 5.0 0.00 0.00 0.00 96 1016.4
20260509155842 55 79 2.0 4.0 0.00 0.00 0.00 96 1016.4
20260509155342 55 72 0.0 3.0 0.00 0.00 0.00 96 1016.4
20260509154842 55 72 0.0 3.0 0.00 0.00 0.00 96 1016.4
20260509154343 55 72 1.0 3.0 0.00 0.00 0.00 96 1016.4
20260509153843 54 71 0.0 2.0 0.00 0.00 0.00 96 1016.4
20260509153607 54 71 1.0 2.0 0.00 0.00 0.00 96 1016.4
20260509152841 54 71 0.0 3.0 0.00 0.00 0.00 96 1016.4
20260509152341 53 71 2.0 4.0 0.00 0.00 0.00 96 1016.4
20260509151842 53 71 2.0 4.0 0.00 0.00 0.00 96 1016.4
20260509151342 53 71 2.0 3.0 0.00 0.00 0.00 96 1016.3
20260509151329 53 71 2.0 3.0 0.00 0.00 0.00 96 1016.3
20260509150333 53 71 2.0 3.0 0.00 0.00 0.00 96 1016.4
20260509145833 53 71 3.0 3.0 0.00 0.00 0.00 96 1016.3
20260509145332 53 69 1.0 3.0 0.00 0.00 0.00 96 1016.3
20260509145050 53 69 2.0 3.0 0.00 0.00 0.00 96 1016.3
20260509144332 53 68 0.0 4.0 0.00 0.00 0.00 96 1016.2
20260509143823 53 69 2.0 4.0 0.00 0.00 0.00 96 1016.1
20260509143537 53 68 1.0 3.0 0.00 0.00 0.00 96 1016.0
20260509142819 53 68 0.0 3.0 0.00 0.00 0.00 96 1016.0
20260509142319 53 68 0.0 3.0 0.00 0.00 0.00 95 1016.0
20260509141813 53 68 2.0 2.0 0.00 0.00 0.00 95 1015.9
20260509141534 53 68 1.0 2.0 0.00 0.00 0.00 95 1015.9
20260509140814 53 68 0.0 0.0 0.00 0.00 0.00 95 1015.7
20260509140311 53 68 0.0 3.0 0.00 0.00 0.00 95 1015.7
20260509135812 53 68 0.0 3.0 0.00 0.00 0.00 95 1015.8
20260509135312 53 68 0.0 0.0 0.00 0.00 0.00 95 1015.8
20260509134810 53 68 0.0 0.0 0.00 0.00 0.00 95 1015.7
20260509134309 53 68 0.0 0.0 0.00 0.00 0.00 95 1015.7
20260509133804 53 68 0.0 0.0 0.00 0.00 0.00 95 1015.7
20260509133530 52 68 0.0 0.0 0.00 0.00 0.00 95 1015.7
20260509132804 52 68 0.0 2.0 0.00 0.00 0.00 95 1015.6
20260509132306 52 68 0.0 3.0 0.00 0.00 0.00 95 1015.6
20260509132021 52 68 2.0 3.0 0.00 0.00 0.00 95 1015.5
20260509131519 52 68 0.0 2.0 0.00 0.00 0.00 95 1015.5
20260509130802 52 61 0.0 0.0 0.00 0.00 0.00 95 1015.4
20260509130302 52 61 0.0 0.0 0.00 0.00 0.00 95 1015.2
20260509130026 52 61 0.0 0.0 0.00 0.00 0.00 94 1015.2
20260509125307 52 61 0.0 0.0 0.00 0.00 0.00 94 1015.2
20260509124801 52 61 0.0 0.0 0.00 0.00 0.00 94 1015.1
20260509124303 52 61 0.0 0.0 0.00 0.00 0.00 94 1015.1
20260509123802 52 61 0.0 0.0 0.00 0.00 0.00 94 1015.1
20260509123302 52 61 0.0 0.0 0.00 0.00 0.00 94 1015.1
20260509122802 52 61 0.0 0.0 0.00 0.00 0.00 94 1015.1
20260509122305 53 61 0.0 0.0 0.00 0.00 0.00 94 1015.1
20260509121802 53 61 0.0 0.0 0.00 0.00 0.00 94 1015.1
20260509121303 53 61 0.0 0.0 0.00 0.00 0.00 94 1015.1
20260509120803 53 61 0.0 0.0 0.00 0.00 0.00 94 1015.1
20260509120304 54 61 0.0 0.0 0.00 0.00 0.00 94 1015.0
20260509115804 54 61 0.0 0.0 0.00 0.00 0.00 94 1015.0
20260509115306 54 61 0.0 0.0 0.00 0.00 0.00 94 1015.0
20260509114804 54 61 0.0 0.0 0.00 0.00 0.00 94 1015.1
20260509114304 55 61 0.0 0.0 0.00 0.00 0.00 94 1015.1
20260509113802 55 61 0.0 0.0 0.00 0.00 0.00 94 1015.2
20260509113302 55 61 0.0 0.0 0.00 0.00 0.00 94 1015.1
20260509112803 55 61 0.0 0.0 0.00 0.00 0.00 94 1015.1
20260509112306 55 61 0.0 0.0 0.00 0.00 0.00 94 1015.2
20260509111802 55 61 0.0 0.0 0.00 0.00 0.00 94 1015.2
20260509111524 55 61 0.0 0.0 0.00 0.00 0.00 94 1015.3
20260509111011 55 61 0.0 0.0 0.00 0.00 0.00 94 1015.4
20260509111000 55 61 0.0 0.0 0.00 0.00 0.00 94 1015.3
20260509105758 55 61 0.0 0.0 0.00 0.00 0.00 94 1015.4
20260509105518 55 61 0.0 0.0 0.00 0.00 0.00 94 1015.5
20260509104756 55 61 0.0 0.0 0.00 0.00 0.00 93 1015.5
20260509104256 55 61 0.0 0.0 0.00 0.00 0.00 93 1015.4
20260509103754 55 61 0.0 0.0 0.00 0.00 0.00 93 1015.4
20260509103239 55 61 0.0 0.0 0.00 0.00 0.00 93 1015.5
20260509102739 55 61 0.0 0.0 0.00 0.00 0.00 93 1015.4
20260509102239 55 61 0.0 0.0 0.00 0.00 0.00 93 1015.5
20260509101740 55 61 0.0 2.0 0.00 0.00 0.00 93 1015.4
20260509101240 55 61 1.0 2.0 0.00 0.00 0.00 93 1015.5
20260509100738 56 61 2.0 3.0 0.00 0.00 0.00 93 1015.5
20260509100235 56 61 0.0 3.0 0.00 0.00 0.00 93 1015.5
20260509095737 56 61 2.0 3.0 0.00 0.00 0.00 93 1015.5
20260509095456 56 61 2.0 4.0 0.00 0.00 0.00 93 1015.5
20260509094736 56 61 2.0 4.0 0.00 0.00 0.00 93 1015.6
20260509094235 56 61 0.0 2.0 0.00 0.00 0.00 93 1015.5
20260509093735 56 61 0.0 0.0 0.00 0.00 0.00 93 1015.5
20260509093233 56 61 0.0 2.0 0.00 0.00 0.00 93 1015.5
20260509092734 56 61 0.0 2.0 0.00 0.00 0.00 93 1015.5
20260509092233 56 61 1.0 3.0 0.00 0.00 0.00 93 1015.5
20260509091735 56 61 2.0 3.0 0.00 0.00 0.00 93 1015.4
20260509091233 56 61 0.0 0.0 0.00 0.00 0.00 93 1015.4
20260509090733 56 61 0.0 1.0 0.00 0.00 0.00 93 1015.5
20260509090232 56 61 0.0 1.0 0.00 0.00 0.00 93 1015.6
20260509085733 56 61 0.0 2.0 0.00 0.00 0.00 93 1015.6
20260509085231 56 61 1.0 2.0 0.00 0.00 0.00 93 1015.6
20260509084732 56 61 0.0 2.0 0.00 0.00 0.00 93 1015.7
20260509084231 56 61 1.0 2.0 0.00 0.00 0.00 93 1015.6
20260509083733 55 61 0.0 0.0 0.00 0.00 0.00 93 1015.7
20260509083232 56 61 0.0 0.0 0.00 0.00 0.00 93 1015.7
20260509082731 56 61 0.0 0.0 0.00 0.00 0.00 93 1015.7
20260509082225 56 61 0.0 0.0 0.00 0.00 0.00 93 1015.7
20260509081726 56 61 0.0 0.0 0.00 0.00 0.00 93 1015.7
20260509081216 56 61 0.0 2.0 0.00 0.00 0.00 93 1015.8
20260509080711 56 61 0.0 2.0 0.00 0.00 0.00 93 1015.9
20260509080206 56 61 1.0 2.0 0.00 0.00 0.00 93 1015.9
20260509075704 56 61 2.0 2.0 0.00 0.00 0.00 93 1015.8
20260509075204 56 61 0.0 2.0 0.00 0.00 0.00 93 1015.9
20260509074703 56 61 0.0 1.0 0.00 0.00 0.00 93 1015.9
20260509074204 56 61 0.0 1.0 0.00 0.00 0.00 93 1015.9
20260509073703 56 61 0.0 0.0 0.00 0.00 0.00 93 1015.9
20260509073203 56 61 0.0 0.0 0.00 0.00 0.00 93 1015.9
20260509072703 56 61 0.0 1.0 0.00 0.00 0.00 93 1016.0
20260509072203 56 61 0.0 1.0 0.00 0.00 0.00 93 1016.0
20260509071700 56 61 0.0 2.0 0.00 0.00 0.00 93 1016.0
20260509071200 56 61 1.0 2.0 0.00 0.00 0.00 93 1016.0
20260509070700 56 61 0.0 1.0 0.00 0.00 0.00 93 1016.1
20260509070132 56 61 0.0 2.0 0.00 0.00 0.00 93 1016.0
20260509065631 56 61 1.0 2.0 0.00 0.00 0.00 92 1016.0
20260509065132 56 61 1.0 3.0 0.00 0.00 0.00 92 1016.0
20260509064902 56 61 2.0 3.0 0.00 0.00 0.00 92 1016.0
20260509064133 56 61 1.0 2.0 0.00 0.00 0.00 92 1016.0
20260509063849 56 61 0.0 1.0 0.00 0.00 0.00 92 1016.1
20260509063133 56 61 0.0 1.0 0.00 0.00 0.00 92 1016.0
20260509062632 56 61 1.0 1.0 0.00 0.00 0.00 92 1015.9
20260509062357 56 61 0.0 1.0 0.00 0.00 0.00 92 1016.0
20260509061631 56 61 0.0 2.0 0.00 0.00 0.00 92 1016.0
20260509061131 56 61 1.0 2.0 0.00 0.00 0.00 91 1016.1
20260509060631 56 61 0.0 2.0 0.00 0.00 0.00 91 1016.0
20260509060132 57 61 0.0 1.0 0.00 0.00 0.00 92 1016.0
20260509055632 57 61 0.0 1.0 0.00 0.00 0.00 92 1016.1
20260509055357 57 61 1.0 1.0 0.00 0.00 0.00 92 1016.1
20260509054632 57 61 0.0 0.0 0.00 0.00 0.00 92 1016.1
20260509054131 57 61 0.0 0.0 0.00 0.00 0.00 92 1016.2
20260509053631 57 61 0.0 0.0 0.00 0.00 0.00 91 1016.2
20260509053133 57 61 0.0 1.0 0.00 0.00 0.00 91 1016.3
20260509052632 57 61 0.0 1.0 0.00 0.00 0.00 91 1016.3
20260509052133 57 61 0.0 1.0 0.00 0.00 0.00 91 1016.1
20260509051633 57 61 0.0 1.0 0.00 0.00 0.00 91 1016.1
20260509051133 57 61 0.0 0.0 0.00 0.00 0.00 91 1016.1
20260509050631 57 61 0.0 1.0 0.00 0.00 0.00 90 1016.1
20260509050131 57 61 0.0 2.0 0.00 0.00 0.00 90 1016.2
20260509045631 57 61 1.0 2.0 0.00 0.00 0.00 90 1016.1
20260509045352 57 61 0.0 0.0 0.00 0.00 0.00 90 1016.1
20260509044631 57 61 0.0 0.0 0.00 0.00 0.00 90 1016.0
20260509044131 57 61 0.0 0.0 0.00 0.00 0.00 89 1016.1
20260509043853 57 61 0.0 0.0 0.00 0.00 0.00 89 1016.0
20260509043130 58 61 0.0 0.0 0.00 0.00 0.00 89 1015.9
20260509042631 58 61 0.0 0.0 0.00 0.00 0.00 89 1015.9
20260509042131 58 61 0.0 2.0 0.00 0.00 0.00 89 1015.9
20260509042111 58 61 1.0 2.0 0.00 0.00 0.00 89 1015.8
20260509041132 58 61 0.0 0.0 0.00 0.00 0.00 89 1015.6
20260509040856 58 61 0.0 0.0 0.00 0.00 0.00 89 1015.5
20260509040131 58 61 0.0 1.0 0.00 0.00 0.00 89 1015.6
20260509035631 58 61 0.0 1.0 0.00 0.00 0.00 89 1015.6
20260509035127 58 61 0.0 1.0 0.00 0.00 0.00 88 1015.5
20260509034627 58 61 0.0 4.0 0.00 0.00 0.00 88 1015.5
20260509034127 58 61 0.0 4.0 0.00 0.00 0.00 88 1015.5
20260509033628 58 61 0.0 5.0 0.00 0.00 0.00 88 1015.4
20260509033127 58 61 2.0 5.0 0.00 0.00 0.00 88 1015.4
20260509032626 59 61 2.0 4.0 0.00 0.00 0.00 87 1015.4
20260509032126 59 61 3.0 4.0 0.00 0.00 0.00 87 1015.4
20260509031625 59 63 0.0 3.0 0.00 0.00 0.00 86 1015.5
20260509031127 59 63 0.0 2.0 0.00 0.00 0.00 86 1015.5
20260509030843 59 63 1.0 4.0 0.00 0.00 0.00 85 1015.6
20260509030126 59 63 3.0 4.0 0.00 0.00 0.00 85 1015.5
20260509025625 60 69 3.0 4.0 0.00 0.00 0.00 84 1015.5
20260509025125 60 69 0.0 5.0 0.00 0.00 0.00 84 1015.6
20260509024624 60 65 2.0 5.0 0.00 0.00 0.00 83 1015.7
20260509024126 61 63 2.0 4.0 0.00 0.00 0.00 82 1015.6
20260509023848 61 62 2.0 4.0 0.00 0.00 0.00 81 1015.5
20260509023125 62 62 0.0 3.0 0.00 0.00 0.00 80 1015.6
20260509022844 62 62 0.0 3.0 0.00 0.00 0.00 80 1015.6
20260509022342 62 52 1.0 3.0 0.00 0.00 0.00 80 1015.5
20260509021624 62 55 0.0 4.0 0.00 0.00 0.00 80 1015.4
20260509021124 62 55 2.0 4.0 0.00 0.00 0.00 80 1015.6
20260509020625 63 52 0.0 4.0 0.00 0.00 0.00 80 1015.5
20260509020124 62 42 1.0 4.0 0.00 0.00 0.00 80 1015.5
20260509015624 62 31 1.0 5.0 0.00 0.00 0.00 80 1015.5
20260509015124 63 90 2.0 5.0 0.00 0.00 0.00 79 1015.3
20260509014623 63 82 1.0 5.0 0.00 0.00 0.00 80 1015.4
20260509014123 63 80 2.0 6.0 0.00 0.00 0.00 79 1015.4
20260509013623 63 90 4.0 6.0 0.00 0.00 0.00 79 1015.3
20260509013123 63 90 2.0 4.0 0.00 0.00 0.00 79 1015.4
20260509012624 63 92 2.0 5.0 0.00 0.00 0.00 79 1015.5
20260509012344 64 92 3.0 6.0 0.00 0.00 0.00 79 1015.6
20260509011624 64 86 3.0 6.0 0.00 0.00 0.00 78 1015.5
20260509011123 64 87 4.0 6.0 0.00 0.00 0.00 78 1015.6
20260509010624 64 86 2.0 6.0 0.00 0.00 0.00 78 1015.7
20260509010343 64 89 3.0 6.0 0.00 0.00 0.00 78 1015.7
20260509005623 64 79 4.0 6.0 0.00 0.00 0.00 79 1015.6
20260509005339 64 94 5.0 9.0 0.00 0.00 0.00 78 1015.6
20260509004623 64 85 6.0 9.0 0.00 0.00 0.00 78 1015.6
20260509004353 64 79 5.0 9.0 0.00 0.00 0.00 78 1015.5
20260509003624 64 85 3.0 9.0 0.00 0.00 0.00 77 1015.7
20260509003123 65 85 4.0 9.0 0.00 0.00 0.00 77 1015.6
20260509002624 64 86 3.0 6.0 0.00 0.00 0.00 78 1015.7
20260509002122 64 87 4.0 7.0 0.00 0.00 0.00 77 1015.8
20260509001623 65 82 4.0 7.0 0.00 0.00 0.00 76 1015.8
20260509001353 65 82 3.0 7.0 0.00 0.00 0.00 76 1015.8
20260509000623 65 92 4.0 7.0 0.00 0.00 0.00 75 1015.9
20260509000121 65 80 4.0 9.0 0.00 0.00 0.00 75 1015.9
20260508235622 65 92 5.0 10.0 0.00 0.00 0.00 76 1015.9
20260508235121 65 76 4.0 10.0 0.00 0.00 0.00 75 1016.0
20260508234621 65 85 6.0 7.0 0.00 0.00 0.00 74 1015.9
20260508234121 66 78 5.0 10.0 0.00 0.00 0.00 74 1015.9
20260508233840 66 102 4.0 10.0 0.00 0.00 0.00 74 1016.0
20260508233120 66 83 4.0 9.0 0.00 0.00 0.00 73 1016.1
20260508232621 67 97 4.0 10.0 0.00 0.00 0.00 72 1016.2
20260508232120 67 94 6.0 10.0 0.00 0.00 0.00 72 1016.3
20260508231620 67 83 4.0 9.0 0.00 0.00 0.00 71 1016.4
20260508231120 68 82 4.0 10.0 0.00 0.00 0.00 70 1016.4
20260508230621 68 99 3.0 10.0 0.00 0.00 0.00 70 1016.6
20260508230121 69 99 2.0 7.0 0.00 0.00 0.00 69 1016.6
20260508225621 69 96 4.0 7.0 0.00 0.00 0.00 69 1016.7
20260508225119 69 124 3.0 5.0 0.00 0.00 0.00 69 1016.7
20260508224619 69 99 3.0 7.0 0.00 0.00 0.00 69 1016.8
20260508224119 69 111 4.0 7.0 0.00 0.00 0.00 69 1016.8
20260508223619 69 94 4.0 7.0 0.00 0.00 0.00 69 1016.9
20260508223119 70 134 2.0 6.0 0.00 0.00 0.00 69 1016.9
20260508222619 70 92 4.0 6.0 0.00 0.00 0.00 69 1017.0
20260508222118 70 99 2.0 7.0 0.00 0.00 0.00 69 1017.1
20260508221619 70 118 3.0 7.0 0.00 0.00 0.00 68 1017.2
20260508221118 70 103 3.0 6.0 0.00 0.00 0.00 68 1017.4
20260508220619 70 104 3.0 6.0 0.00 0.00 0.00 68 1017.4
20260508220118 70 133 2.0 9.0 0.00 0.00 0.00 68 1017.6
20260508215617 70 120 4.0 9.0 0.00 0.00 0.00 69 1017.6
20260508215118 70 137 4.0 6.0 0.00 0.00 0.00 68 1017.6
20260508214618 70 104 2.0 6.0 0.00 0.00 0.00 68 1017.6
20260508214118 70 135 3.0 6.0 0.00 0.00 0.00 68 1017.7
20260508213619 70 92 2.0 5.0 0.00 0.00 0.00 68 1017.7
20260508213118 70 86 3.0 9.0 0.00 0.00 0.00 68 1017.8
20260508212841 70 94 4.0 9.0 0.00 0.00 0.00 69 1017.8
20260508212117 70 111 3.0 7.0 0.00 0.00 0.00 69 1017.9
20260508211838 69 127 2.0 10.0 0.00 0.00 0.00 71 1017.9
20260508211117 69 99 2.0 10.0 0.00 0.00 0.00 71 1017.9
20260508210616 69 97 2.0 6.0 0.00 0.00 0.00 72 1018.1
20260508210117 68 135 3.0 6.0 0.00 0.00 0.00 72 1018.2
20260508205617 68 117 2.0 6.0 0.00 0.00 0.00 72 1018.2
20260508205116 68 144 4.0 6.0 0.00 0.00 0.00 72 1018.3
20260508204616 68 102 2.0 6.0 0.00 0.00 0.00 73 1018.5
20260508204116 67 131 2.0 6.0 0.00 0.00 0.00 74 1018.5
20260508203616 67 137 2.0 6.0 0.00 0.00 0.00 75 1018.5
20260508203557 67 92 2.0 6.0 0.00 0.00 0.00 75 1018.4
20260508202616 67 99 2.0 6.0 0.00 0.00 0.00 74 1018.5
20260508202341 67 94 3.0 6.0 0.00 0.00 0.00 76 1018.4
20260508201617 66 134 2.0 7.0 0.00 0.00 0.00 75 1018.6
20260508201118 66 90 2.0 7.0 0.00 0.00 0.00 76 1018.5
20260508200843 66 97 2.0 6.0 0.00 0.00 0.00 78 1018.6
20260508200117 66 113 3.0 6.0 0.00 0.00 0.00 78 1018.7
20260508195615 65 128 1.0 6.0 0.00 0.00 0.00 79 1018.8